Satellite: NCUBE2
Catalog number: 28897
Epoch time:      07102.66517506
Element set:     224
Inclination:      098.1375 deg
RA of node:       000.7356 deg
Eccentricity:    0.0016823
Arg of perigee:   322.1521 deg
Mean anomaly:     037.8489 deg
Mean motion:   14.59697661 rev/day
Decay rate:       1.86e-06 rev/day^2
Epoch rev:            6981
Checksum:              321

Satellite: NMARS
Catalog number: 29662
Epoch time:      07102.87222256
Element set:     201
Inclination:      051.6344 deg
RA of node:       070.5297 deg
Eccentricity:    0.0010573
Arg of perigee:   087.6732 deg
Mean anomaly:     272.5534 deg
Mean motion:   16.04191592 rev/day
Decay rate:    2.26542e-03 rev/day^2
Epoch rev:            1785
Checksum:              288

Satellite: FCAL
Catalog number: 29667
Epoch time:      07102.39950319
Element set:     107
Inclination:      051.6336 deg
RA of node:       078.7034 deg
Eccentricity:    0.0017050
Arg of perigee:   086.4213 deg
Mean anomaly:     273.8743 deg
Mean motion:   15.85742395 rev/day
Decay rate:     1.6867e-04 rev/day^2
Epoch rev:            1755
Checksum:              313

Satellite: FALCON
Catalog number: 30776
Epoch time:      07101.81285535
Element set:      28
Inclination:      035.4339 deg
RA of node:       255.0214 deg
Eccentricity:    0.0001810
Arg of perigee:   282.6362 deg
Mean anomaly:     077.4151 deg
Mean motion:   15.02676820 rev/day
Decay rate:       3.35e-06 rev/day^2
Epoch rev:             506
Checksum:              257

/EX






More information about the Keps mailing list